BMCB-37 Weather Reports


time (UTC)temp
C
wind
direction
speed
KPH
gust
KPH
rain 1hr
cm
rain 24hr
cm
rain mn
cm
humidity
%
barometer
mb
20260507174026 13 0 0.0 0.0 0.00 0.00 0.00 73 1018.9
20260507173035 13 0 0.0 0.0 0.00 0.00 0.00 72 1018.9
20260507172040 13 0 0.0 0.0 0.00 0.00 0.00 74 1018.8
20260507171036 14 0 0.0 0.0 0.00 0.00 0.00 71 1018.8
20260507170042 14 0 0.0 0.0 0.00 0.00 0.00 71 1018.8
20260507164043 14 0 0.0 0.0 0.00 0.00 0.00 70 1018.7
20260507162023 14 0 0.0 0.0 0.00 0.00 0.00 68 1018.8
20260507161039 14 0 0.0 0.0 0.00 0.00 0.00 69 1018.8
20260507160039 14 0 0.0 0.0 0.00 0.00 0.00 72 1018.8
20260507155034 14 0 0.0 0.0 0.00 0.00 0.00 72 1018.8
20260507154040 14 0 0.0 0.0 0.00 0.00 0.00 74 1018.8
20260507152021 13 0 0.0 0.0 0.00 0.00 0.00 72 1018.8
20260507151020 13 0 0.0 0.0 0.00 0.00 0.00 71 1018.8
20260507145030 13 0 0.0 0.0 0.00 0.00 0.00 70 1018.8
20260507142036 15 0 0.0 0.0 0.00 0.00 0.00 66 1018.8
20260507141036 15 0 0.0 0.0 0.00 0.00 0.00 64 1018.8
20260507140022 15 0 0.0 0.0 0.00 0.00 0.00 63 1018.9
20260507135039 15 0 0.0 0.0 0.00 0.00 0.00 61 1018.9
20260507131036 15 0 0.0 0.0 0.00 0.00 0.00 56 1018.9
20260507130035 15 0 0.0 0.0 0.00 0.00 0.00 57 1018.9
20260507125036 15 0 0.0 0.0 0.00 0.00 0.00 56 1018.9
20260507124020 15 0 0.0 0.0 0.00 0.00 0.00 56 1018.8
20260507123022 15 0 0.0 0.0 0.00 0.00 0.00 60 1018.8
20260507120020 15 0 0.0 0.0 0.00 0.00 0.00 54 1018.8
20260507115036 15 0 0.0 0.0 0.00 0.00 0.00 56 1018.8
20260507113020 15 0 0.0 0.0 0.00 0.00 0.00 59 1018.9
20260507111037 15 0 0.0 0.0 0.00 0.00 0.00 57 1018.9
20260507105036 14 0 0.0 0.0 0.00 0.00 0.00 64 1018.9
20260507103037 15 0 0.0 0.0 0.00 0.00 0.00 65 1019.0
20260507102039 14 0 0.0 0.0 0.00 0.00 0.00 70 1018.9
20260507101035 13 0 0.0 0.0 0.00 0.00 0.00 68 1018.9
20260507100036 13 0 0.0 0.0 0.00 0.00 0.00 73 1018.8
20260507093021 13 0 0.0 0.0 0.00 0.00 0.00 71 1018.8
20260507091020 13 0 0.0 0.0 0.00 0.00 0.00 75 1018.7
20260507090021 12 0 0.0 0.0 0.00 0.00 0.00 75 1018.8
20260507085039 12 0 0.0 0.0 0.00 0.00 0.00 76 1018.7
20260507083021 12 0 0.0 0.0 0.00 0.00 0.00 79 1018.6
20260507082023 12 0 0.0 0.0 0.00 0.00 0.00 80 1018.5
20260507081036 12 0 0.0 0.0 0.00 0.00 0.00 80 1018.4
20260507080039 12 0 0.0 0.0 0.00 0.03 0.00 80 1018.4
20260507075035 11 0 0.0 0.0 0.00 0.03 0.00 80 1018.4
20260507072037 11 0 0.0 0.0 0.00 0.08 0.00 82 1018.2
20260507071034 11 0 0.0 0.0 0.00 0.08 0.00 82 1018.2
20260507070034 11 0 0.0 0.0 0.00 0.08 0.00 81 1018.2
20260507065024 11 0 0.0 0.0 0.00 0.08 0.00 82 1018.1
20260507064022 11 0 0.0 0.0 0.00 0.10 0.00 84 1018.1
20260507062033 10 0 0.0 0.0 0.00 0.15 0.00 89 1017.9
20260507061034 10 0 0.0 0.0 0.00 0.15 0.00 90 1017.8
20260507060040 10 0 0.0 0.0 0.00 0.15 0.00 93 1017.8
20260507055034 9 0 0.0 0.0 0.00 0.20 0.00 94 1017.7
20260507054038 9 0 0.0 0.0 0.00 0.20 0.00 95 1017.6
20260507052039 8 0 0.0 0.0 0.00 0.23 0.00 94 1017.5
20260507051022 8 0 0.0 0.0 0.00 0.23 0.00 94 1017.4
20260507050023 8 0 0.0 0.0 0.00 0.23 0.00 95 1017.3
20260507045039 8 0 0.0 0.0 0.00 0.23 0.00 95 1017.2
20260507044036 8 0 0.0 0.0 0.00 0.23 0.00 95 1017.0
20260507043035 8 0 0.0 0.0 0.00 0.23 0.00 95 1017.0
20260507042039 8 0 0.0 0.0 0.00 0.23 0.00 96 1016.9
20260507034043 8 0 0.0 0.0 0.00 0.36 0.00 96 1016.6
20260507024037 8 0 0.0 0.0 0.00 0.36 0.00 98 1016.5
20260507023040 8 0 0.0 0.0 0.00 0.36 0.00 98 1016.4
20260507022039 8 0 0.0 0.0 0.00 0.36 0.00 98 1016.3
20260507012034 8 0 0.0 0.0 0.00 0.43 0.00 97 1016.2
20260507010039 8 0 0.0 0.0 0.00 0.51 0.00 97 1016.2
20260507003022 8 0 0.0 0.0 0.00 0.56 0.00 95 1016.1
20260506234037 8 0 0.0 0.0 0.00 0.71 0.00 96 1015.9
20260506231038 8 0 0.0 0.0 0.00 0.81 0.00 97 1015.7
20260506230038 8 0 0.0 0.0 0.00 0.86 0.00 96 1015.6
20260506225037 8 0 0.0 0.0 0.00 0.89 0.00 96 1015.5
20260506224039 8 0 0.0 0.0 0.00 0.94 0.00 96 1015.4
20260506223036 8 0 0.0 0.0 0.00 1.02 0.00 96 1015.4
20260506222037 8 0 0.0 0.0 0.00 1.04 0.00 96 1015.3
20260506221037 8 0 0.0 0.0 0.00 1.09 0.00 96 1015.2
20260506215037 8 0 0.0 0.0 0.00 1.14 1.09 96 1015.1
20260506212031 8 0 0.0 0.0 0.00 1.17 1.09 95 1015.0
20260506210032 9 0 0.0 0.0 0.00 1.24 1.09 94 1014.9
20260506205042 9 0 0.0 0.0 0.00 1.24 1.09 94 1014.8
20260506203038 9 0 0.0 0.0 0.00 1.30 1.09 93 1014.8
20260506202050 9 0 0.0 0.0 0.00 1.37 1.09 93 1014.7
20260506201039 9 0 0.0 0.0 0.00 1.37 1.09 92 1014.7
20260506200040 10 0 0.0 0.0 0.00 1.45 1.09 91 1014.6
20260506195033 10 0 0.0 0.0 0.00 1.45 1.09 91 1014.4
20260506194037 10 0 0.0 0.0 0.00 1.50 1.09 90 1014.3
20260506190043 10 0 0.0 0.0 0.00 1.65 1.09 86 1013.8
20260506185038 10 0 0.0 0.0 0.00 1.65 1.09 86 1013.7
20260506184036 11 0 0.0 0.0 0.00 1.68 1.09 86 1013.6
20260506183042 11 0 0.0 0.0 0.00 1.68 1.09 83 1013.5